Weather History for Tioga Municipal Airport, ND

Change the Weather History Date:

Sunday, April 27, 2014

  Actual Average (KISN) Record (KISN)
Temperature  
Mean Temperature 37 °F 48 °F  
Max Temperature 42 °F 62 °F 88 °F (1910)
Min Temperature 32 °F 34 °F 10 °F (1907)
Degree Days  
Heating Degree Days 28 17  
Month to date heating degree days 601  
Since 1 July heating degree days 8476  
Cooling Degree Days 0 0  
Month to date cooling degree days 0  
Year to date cooling degree days 0  
Moisture  
Dew Point 35 °F    
Average Humidity 98    
Maximum Humidity 100    
Minimum Humidity 81    
Precipitation  
Precipitation 0.57 in 0.04 in 1.00 in (1984)
Month to date precipitation 0.86  
Year to date precipitation 2.55  
Sea Level Pressure  
Sea Level Pressure 29.67 in    
Wind  
Wind Speed 18 mph (East)    
Max Wind Speed 24 mph    
Max Gust Speed 34 mph    
Visibility 6 miles    
Events Rain , Snow    
T = Trace of Precipitation, MM = Missing Value Source: NWS Daily Summary

Daily Weather History Graph

Daily Weather History Graph

Search for Another Location

Airport:

Trip Planner

Search our weather history database for the weather conditions in past years. The results will help you decide how hot, cold, wet, or windy it might be!

Date:

Astronomy

Apr. 27, 2014 Rise Set
Actual Time 6:39 AM CDT 9:00 PM CDT
Civil Twilight 6:04 AM CDT 9:34 PM CDT
Nautical Twilight 5:21 AM CDT 10:18 PM CDT
Astronomical Twilight 4:32 AM CDT 11:07 PM CDT
Moon 5:50 AM CDT (4/27) 7:29 PM CDT (4/27)
Length of Visible Light 15h 30m
Length of Day
14h 21m
Waning Crescent, 3% of the Moon is Illuminated
Apr 27
Waning Crescent
Apr 29
New
May 6
First Quarter
May 14
Full
May 21
Last Quarter

Hourly Weather History & Observations

Time (CDT) Temp. Windchill Dew Point Humidity Pressure Visibility Wind Dir Wind Speed Gust Speed Precip Events Conditions
12:15 AM 42.8 °F 34.5 °F 39.2 °F 87% 29.70 in 10.0 mi ESE 18.4 mph 28.8 mph N/A   Overcast
12:35 AM 42.8 °F 33.5 °F 37.4 °F 81% 29.71 in 10.0 mi ESE 23.0 mph 29.9 mph N/A   Overcast
12:55 AM 42.8 °F 34.3 °F 37.4 °F 81% 29.71 in 10.0 mi ESE 19.6 mph 26.5 mph N/A   Overcast
1:15 AM 42.8 °F 34.0 °F 37.4 °F 81% 29.70 in 10.0 mi ESE 20.7 mph 29.9 mph N/A   Overcast
1:35 AM 41.0 °F 31.1 °F 37.4 °F 87% 29.70 in 10.0 mi ESE 23.0 mph 34.5 mph N/A   Overcast
1:55 AM 41.0 °F 32.2 °F 37.4 °F 87% 29.69 in 10.0 mi East 18.4 mph 29.9 mph N/A   Overcast
2:15 AM 41.0 °F 31.1 °F 37.4 °F 87% 29.68 in 10.0 mi ESE 23.0 mph 31.1 mph N/A   Overcast
2:35 AM 41.0 °F 31.9 °F 41.0 °F 100% 29.69 in 10.0 mi East 19.6 mph 31.1 mph N/A   Overcast
2:55 AM 39.2 °F 29.6 °F 39.2 °F 100% 29.68 in 10.0 mi East 19.6 mph 26.5 mph N/A   Overcast
3:15 AM 39.2 °F 29.0 °F 39.2 °F 100% 29.68 in 10.0 mi East 21.9 mph 27.6 mph N/A   Overcast
3:35 AM 39.2 °F 29.6 °F 39.2 °F 100% 29.67 in 10.0 mi ESE 19.6 mph 28.8 mph N/A   Overcast
3:55 AM 39.2 °F 29.3 °F 39.2 °F 100% 29.66 in 10.0 mi East 20.7 mph 28.8 mph N/A   Overcast
4:15 AM 39.2 °F 30.8 °F 39.2 °F 100% 29.66 in 10.0 mi East 15.0 mph 26.5 mph N/A   Overcast
4:35 AM 39.2 °F 28.7 °F 39.2 °F 100% 29.65 in 10.0 mi East 23.0 mph 29.9 mph N/A   Overcast
4:55 AM 39.2 °F 29.6 °F 39.2 °F 100% 29.65 in 10.0 mi East 19.6 mph 27.6 mph N/A   Overcast
5:15 AM 39.2 °F 29.8 °F 39.2 °F 100% 29.65 in 10.0 mi East 18.4 mph 23.0 mph N/A   Overcast
5:35 AM 39.2 °F 30.2 °F 39.2 °F 100% 29.66 in 10.0 mi East 17.3 mph 25.3 mph N/A   Overcast
5:55 AM 39.2 °F 30.5 °F 39.2 °F 100% 29.66 in 10.0 mi East 16.1 mph 26.5 mph N/A   Overcast
6:15 AM 39.2 °F 29.6 °F 39.2 °F 100% 29.66 in 10.0 mi East 19.6 mph 26.5 mph N/A   Overcast
6:35 AM 37.4 °F 27.2 °F 37.4 °F 100% 29.66 in 10.0 mi East 19.6 mph 28.8 mph N/A   Overcast
6:55 AM 37.4 °F 28.2 °F 37.4 °F 100% 29.67 in 7.0 mi East 16.1 mph 26.5 mph N/A   Overcast
7:15 AM 37.4 °F 28.2 °F 37.4 °F 100% 29.66 in 7.0 mi ESE 16.1 mph 23.0 mph N/A   Overcast
7:35 AM 37.4 °F 27.2 °F 37.4 °F 100% 29.66 in 10.0 mi East 19.6 mph 24.2 mph N/A   Overcast
7:55 AM 37.4 °F 27.8 °F 37.4 °F 100% 29.65 in 10.0 mi East 17.3 mph 25.3 mph N/A   Overcast
8:15 AM 37.4 °F 27.2 °F 37.4 °F 100% 29.65 in 10.0 mi East 19.6 mph 26.5 mph N/A   Overcast
8:35 AM 35.6 °F 25.2 °F 35.6 °F 100% 29.65 in 10.0 mi East 18.4 mph 24.2 mph N/A   Overcast
8:55 AM 37.4 °F 26.6 °F 37.4 °F 100% 29.66 in 10.0 mi East 21.9 mph 27.6 mph N/A   Overcast
9:15 AM 35.6 °F 24.0 °F 35.6 °F 100% 29.65 in 7.0 mi East 23.0 mph 29.9 mph N/A   Overcast
9:35 AM 35.6 °F 24.5 °F 35.6 °F 100% 29.65 in 4.0 mi East 20.7 mph 27.6 mph N/A   Overcast
9:55 AM 35.6 °F 24.8 °F 35.6 °F 100% 29.64 in 9.0 mi East 19.6 mph 31.1 mph N/A   Overcast
10:15 AM 35.6 °F 23.7 °F 35.6 °F 100% 29.63 in 10.0 mi East 24.2 mph 34.5 mph N/A   Overcast
10:35 AM 35.6 °F 24.5 °F 35.6 °F 100% 29.64 in 10.0 mi East 20.7 mph 28.8 mph N/A   Overcast
10:55 AM 35.6 °F 25.2 °F 35.6 °F 100% 29.65 in 10.0 mi ESE 18.4 mph 25.3 mph N/A   Overcast
11:15 AM 35.6 °F 24.5 °F 35.6 °F 100% 29.65 in 8.0 mi East 20.7 mph 26.5 mph N/A   Mostly Cloudy
11:35 AM 35.6 °F 26.2 °F 35.6 °F 100% 29.66 in 3.0 mi East 15.0 mph 21.9 mph 0.01 in Rain Light Rain
11:55 AM 35.6 °F 27.1 °F 35.6 °F 100% 29.67 in 4.0 mi East 12.7 mph 23.0 mph 0.01 in Rain Light Rain
12:15 PM 35.6 °F 25.9 °F 35.6 °F 100% 29.66 in 3.0 mi East 16.1 mph 21.9 mph N/A Rain Light Rain
12:35 PM 35.6 °F 25.9 °F 35.6 °F 100% 29.66 in 2.0 mi East 16.1 mph 25.3 mph 0.01 in Rain Light Rain
12:55 PM 35.6 °F 26.2 °F 35.6 °F 100% 29.65 in 5.0 mi East 15.0 mph 23.0 mph 0.01 in Rain Light Rain
1:15 PM 35.6 °F 26.2 °F 35.6 °F 100% 29.65 in 2.5 mi East 15.0 mph - N/A Rain Light Rain
1:35 PM 35.6 °F 25.9 °F 35.6 °F 100% 29.65 in 4.0 mi East 16.1 mph 20.7 mph 0.01 in Rain Light Rain
1:55 PM 35.6 °F 24.0 °F 35.6 °F 100% 29.65 in 7.0 mi East 23.0 mph 27.6 mph 0.01 in Rain Light Rain
2:15 PM 33.8 °F 23.5 °F 33.8 °F 100% 29.65 in 10.0 mi East 16.1 mph 23.0 mph N/A   Overcast
2:35 PM 33.8 °F 22.8 °F 33.8 °F 100% 29.65 in 10.0 mi East 18.4 mph 24.2 mph N/A   Mostly Cloudy
3:15 PM 33.8 °F 21.9 °F 33.8 °F 100% 29.65 in 2.5 mi East 21.9 mph 25.3 mph N/A   Overcast
3:35 PM 33.8 °F 23.2 °F 33.8 °F 100% 29.65 in 3.0 mi East 17.3 mph 23.0 mph N/A   Mostly Cloudy
3:55 PM 33.8 °F 23.2 °F 33.8 °F 100% 29.65 in 2.0 mi East 17.3 mph 24.2 mph N/A   Mostly Cloudy
4:15 PM 32.0 °F 20.8 °F 32.0 °F 100% 29.64 in 1.5 mi East 17.3 mph 21.9 mph 0.01 in   Overcast
4:35 PM 32.0 °F 21.6 °F 32.0 °F 100% 29.64 in 4.0 mi East 15.0 mph 21.9 mph 0.02 in   Mostly Cloudy
4:55 PM 32.0 °F 20.8 °F 32.0 °F 100% 29.64 in 1.8 mi East 17.3 mph 23.0 mph 0.04 in Rain Light Rain
5:15 PM 32.0 °F 21.6 °F 32.0 °F 100% 29.65 in 1.5 mi East 15.0 mph 20.7 mph N/A Rain Light Rain
5:35 PM 32.0 °F 21.6 °F 32.0 °F 100% 29.66 in 2.0 mi East 15.0 mph - N/A   Overcast
5:55 PM 32.0 °F 21.2 °F 32.0 °F 100% 29.66 in 5.0 mi East 16.1 mph - N/A   Mostly Cloudy
6:15 PM 33.8 °F 25.3 °F 33.8 °F 100% 29.67 in 4.0 mi East 11.5 mph 17.3 mph N/A   Partly Cloudy
6:35 PM 32.0 °F 23.6 °F 32.0 °F 100% 29.67 in 1.8 mi East 10.4 mph - N/A   Scattered Clouds
6:55 PM 32.0 °F 22.5 °F 32.0 °F 100% 29.68 in 1.8 mi East 12.7 mph - N/A   Scattered Clouds
7:15 PM 32.0 °F 21.6 °F 32.0 °F 100% 29.68 in 1.2 mi East 15.0 mph - N/A   Scattered Clouds
7:35 PM 32.0 °F 21.6 °F 32.0 °F 100% 29.69 in 2.0 mi East 15.0 mph - N/A   Mostly Cloudy
7:55 PM 32.0 °F 22.1 °F 32.0 °F 100% 29.70 in 2.0 mi East 13.8 mph 17.3 mph N/A   Scattered Clouds
8:15 PM 32.0 °F 23.0 °F 32.0 °F 100% 29.70 in 1.8 mi East 11.5 mph - N/A   Clear
8:35 PM 32.0 °F 22.5 °F 32.0 °F 100% 29.70 in 2.0 mi East 12.7 mph - N/A   Mostly Cloudy
8:55 PM 32.0 °F 22.1 °F 32.0 °F 100% 29.70 in 2.5 mi East 13.8 mph - N/A   Mostly Cloudy
9:15 PM 32.0 °F 23.0 °F 32.0 °F 100% 29.70 in 3.0 mi East 11.5 mph - N/A Rain Light Rain
9:35 PM 32.0 °F 22.5 °F 32.0 °F 100% 29.71 in 3.0 mi East 12.7 mph - N/A   Mostly Cloudy
9:55 PM 32.0 °F 23.0 °F 32.0 °F 100% 29.72 in 3.0 mi East 11.5 mph - N/A   Mostly Cloudy
10:15 PM 32.0 °F 23.0 °F 32.0 °F 100% 29.72 in 2.5 mi East 11.5 mph - N/A   Scattered Clouds
10:35 PM 32.0 °F 24.2 °F 32.0 °F 100% 29.72 in 2.5 mi East 9.2 mph - N/A   Scattered Clouds
10:55 PM 32.0 °F 24.2 °F 32.0 °F 100% 29.72 in 3.0 mi East 9.2 mph - N/A   Scattered Clouds
11:15 PM 32.0 °F 26.4 °F 32.0 °F 100% 29.71 in 1.5 mi ENE 5.8 mph - 0.12 in Snow Light Snow
11:35 PM 32.0 °F 25.6 °F 32.0 °F 100% 29.70 in 1.8 mi ENE 6.9 mph - 0.32 in Snow Light Snow
11:55 PM 32.0 °F 26.4 °F 32.0 °F 100% 29.69 in 2.0 mi ENE 5.8 mph - 0.50 in Snow Light Snow